ARIRANG-5 (KOMPSAT-5)

Last updated on Tue Sep 16 2025 00:02:30 GMT+0000 (Coordinated Universal Time)

1 39227U 13042A 25258.81904332 -.00000267 00000+0 -14750-4 0 9992 2 39227 97.6209 84.3504 0002829 24.1696 335.9663 15.04501868662604
UTC large
Height (km)
Speed (km/s)
/
Latitude / Longitude
Inclination (degrees)
Orbital Period (minutes)
Azimuth
Elevation
Range (km)
Doppler Factor

Next 0 passes for location: London (51.5072 / 0.1276)

Sorry there are no passes over London.